Flag for U.S.A. Weather past 2 weeks in San Antonio, Texas, U.S.A.

Now
44 °F

Passing clouds.


Feels Like: 40 °F
Forecast: 50 / 77 °F
Wind: 7 mph from Northwest

Location: San Antonio International Airport

Current Time: Jan 27, 2015 at 6:23:12 AM

Latest Report: Jan 27, 2015 at 5:51 AM


Visibility: 10 mi

Pressure: 30.14 "Hg

Humidity: 73%

Dew point: 36 °F

Location of San AntonioLocation

Historic Weather in San Antonio — Graph

°F

San Antonio temperature yesterday

Maximum temperature yesterday: 72 °F (at 4:51 PM)
Minimum temperature yesterday: 40 °F (at 5:51 AM)
Average temperature yesterday: 57 °F

Past Weeks' High & Low Weather Summary

 TemperatureHumidityPressure
High81 °F (Jan 20, 2:51 PM)97% (Jan 21, 10:51 PM)30.45 "Hg (Jan 21, 10:51 PM)
Low34 °F (Jan 24, 2:51 AM)17% (Jan 18, 3:51 PM)29.82 "Hg (Jan 20, 3:51 PM)
Average51 °F68%30.16 "Hg
* Reported Jan 12 4:51 AM — Jan 27 4:51 AM, San Antonio, Weather by CustomWeather, © 2014

Note: Actual official high and low records may vary slightly from our data, if they occured in-between our weather recording intervals... More about our weather records

Advertising

San Antonio weather history for previous 24 hours

 ConditionsComfort  
Time TempWeatherWind HumidityBarometerVisibility
4:51 AM
Jan 27
44 °FPassing clouds.6 mph76%30.13 "Hg10 mi
3:51 AM46 °FPassing clouds.7 mph71%30.13 "Hg10 mi
2:51 AM46 °FPassing clouds.6 mph73%30.14 "Hg10 mi
1:51 AM47 °FPassing clouds.7 mph71%30.15 "Hg10 mi
12:51 AM48 °FPassing clouds.6 mph71%30.16 "Hg10 mi
11:51 PM
Jan 26
52 °FPassing clouds.7 mph61%30.16 "Hg10 mi
10:51 PM58 °FPassing clouds.9 mph47%30.17 "Hg10 mi
9:51 PM58 °FPassing clouds.6 mph50%30.17 "Hg10 mi
8:51 PM61 °FPassing clouds.9 mph44%30.17 "Hg10 mi
7:51 PM64 °FPassing clouds.8 mph37%30.17 "Hg10 mi
6:51 PM65 °FPassing clouds.8 mph36%30.16 "Hg10 mi
5:51 PM67 °FPartly sunny.7 mph32%30.15 "Hg10 mi
4:51 PM72 °FPartly sunny.10 mph24%30.14 "Hg10 mi
3:51 PM71 °FPartly sunny.7 mph28%30.14 "Hg10 mi
2:51 PM70 °FPartly sunny.8 mph30%30.15 "Hg10 mi
1:51 PM71 °FPartly sunny.8 mph27%30.16 "Hg10 mi
12:51 PM71 °FPartly sunny.6 mph28%30.21 "Hg10 mi
11:51 AM68 °FPartly sunny.7 mph30%30.24 "Hg10 mi
10:51 AM64 °FPartly sunny.6 mph35%30.27 "Hg10 mi
9:51 AM57 °FPartly sunny.5 mph47%30.25 "Hg10 mi
8:51 AM52 °FPartly sunny.5 mph59%30.24 "Hg10 mi
7:51 AM44 °FPartly sunny.5 mph71%30.24 "Hg10 mi
6:51 AM41 °FPassing clouds.7 mph76%30.23 "Hg10 mi
Weather by CustomWeather, © 2014

See weather overviewHow to use our weather pages